| time (UTC) | temp F | wind direction | speed MPH | gust MPH | rain 1hr in | rain 24hr in | rain mn in | humidity % | barometer mb |
| 20260510060113 | 74 | 356 | 0.0 | 1.0 | 0.00 | 0.00 | 0.00 | 89 | 1007.3 |
| 20260510055113 | 74 | 356 | 1.0 | 1.0 | 0.00 | 0.00 | 0.00 | 88 | 1005.9 |
| 20260510054113 | 75 | 357 | 2.0 | 3.0 | 0.00 | 0.00 | 0.00 | 87 | 1005.0 |
| 20260510053113 | 75 | 356 | 2.0 | 4.0 | 0.00 | 0.00 | 0.00 | 86 | 1004.8 |
| 20260510052113 | 75 | 356 | 0.0 | 3.0 | 0.00 | 0.00 | 0.00 | 85 | 1004.8 |
| 20260510051113 | 75 | 356 | 1.0 | 4.0 | 0.00 | 0.00 | 0.00 | 84 | 1004.4 |
| 20260510050113 | 75 | 356 | 2.0 | 6.0 | 0.00 | 0.00 | 0.00 | 83 | 1004.6 |
| 20260510045113 | 75 | 356 | 1.0 | 5.0 | 0.00 | 0.00 | 0.00 | 81 | 1004.5 |
| 20260510044113 | 75 | 356 | 1.0 | 5.0 | 0.00 | 0.00 | 0.00 | 79 | 1004.3 |
| 20260510043113 | 75 | 357 | 1.0 | 3.0 | 0.00 | 0.00 | 0.00 | 79 | 1004.1 |
| 20260510042113 | 75 | 356 | 3.0 | 4.0 | 0.00 | 0.00 | 0.00 | 79 | 1004.1 |
| 20260510041113 | 75 | 356 | 1.0 | 3.0 | 0.00 | 0.00 | 0.00 | 79 | 1004.3 |
| 20260510040113 | 75 | 356 | 2.0 | 2.0 | 0.00 | 0.00 | 0.00 | 78 | 1004.2 |
| 20260510035113 | 75 | 357 | 0.0 | 2.0 | 0.00 | 0.00 | 0.00 | 78 | 1004.5 |
| 20260510034113 | 76 | 356 | 1.0 | 2.0 | 0.00 | 0.00 | 0.00 | 77 | 1004.5 |
| 20260510033113 | 76 | 356 | 1.0 | 2.0 | 0.00 | 0.00 | 0.00 | 77 | 1004.5 |
| 20260510032113 | 76 | 356 | 2.0 | 4.0 | 0.00 | 0.00 | 0.00 | 77 | 1004.5 |
| 20260510031113 | 77 | 356 | 3.0 | 3.0 | 0.00 | 0.00 | 0.00 | 76 | 1004.5 |
| 20260510030113 | 77 | 357 | 1.0 | 3.0 | 0.00 | 0.00 | 0.00 | 75 | 1004.5 |
| 20260510025113 | 77 | 357 | 1.0 | 2.0 | 0.00 | 0.00 | 0.00 | 75 | 1004.4 |
| 20260510024113 | 77 | 357 | 1.0 | 2.0 | 0.00 | 0.00 | 0.00 | 74 | 1004.4 |
| 20260510023113 | 77 | 356 | 1.0 | 2.0 | 0.00 | 0.00 | 0.00 | 74 | 1004.4 |
| 20260510022113 | 78 | 356 | 0.0 | 2.0 | 0.00 | 0.00 | 0.00 | 73 | 1004.4 |
| 20260510021113 | 78 | 357 | 0.0 | 3.0 | 0.00 | 0.00 | 0.00 | 72 | 1004.3 |
| 20260510020113 | 78 | 356 | 1.0 | 3.0 | 0.00 | 0.00 | 0.00 | 71 | 1004.2 |
| 20260510015113 | 78 | 357 | 0.0 | 2.0 | 0.00 | 0.00 | 0.00 | 70 | 1004.0 |
| 20260510014113 | 79 | 356 | 1.0 | 2.0 | 0.00 | 0.00 | 0.00 | 69 | 1004.0 |
| 20260510013113 | 79 | 356 | 0.0 | 2.0 | 0.00 | 0.00 | 0.00 | 68 | 1003.9 |
| 20260510012113 | 80 | 357 | 1.0 | 3.0 | 0.00 | 0.00 | 0.00 | 68 | 1003.7 |
| 20260510011113 | 80 | 356 | 1.0 | 4.0 | 0.00 | 0.00 | 0.00 | 67 | 1003.5 |
| 20260510010113 | 80 | 356 | 0.0 | 4.0 | 0.00 | 0.00 | 0.00 | 65 | 1003.4 |
| 20260510005113 | 81 | 356 | 1.0 | 4.0 | 0.00 | 0.00 | 0.00 | 64 | 1003.4 |
| 20260510004113 | 81 | 357 | 2.0 | 3.0 | 0.00 | 0.00 | 0.00 | 63 | 1003.3 |
| 20260510003112 | 82 | 356 | 2.0 | 3.0 | 0.00 | 0.00 | 0.00 | 62 | 1003.2 |
| 20260510002112 | 82 | 356 | 3.0 | 4.0 | 0.00 | 0.00 | 0.00 | 60 | 1003.2 |
| 20260510001112 | 82 | 356 | 0.0 | 3.0 | 0.00 | 0.00 | 0.00 | 60 | 1003.3 |
| 20260510000112 | 83 | 38 | 1.0 | 4.0 | 0.00 | 0.00 | 0.00 | 62 | 1003.4 |
| 20260509235112 | 83 | 38 | 1.0 | 4.0 | 0.00 | 0.00 | 0.00 | 61 | 1003.4 |
| 20260509234112 | 83 | 38 | 1.0 | 4.0 | 0.00 | 0.00 | 0.00 | 62 | 1003.4 |
| 20260509233112 | 83 | 39 | 3.0 | 5.0 | 0.00 | 0.00 | 0.00 | 62 | 1003.5 |
| 20260509232112 | 83 | 38 | 0.0 | 4.0 | 0.00 | 0.00 | 0.00 | 63 | 1003.5 |
| 20260509231112 | 84 | 38 | 0.0 | 3.0 | 0.00 | 0.00 | 0.00 | 63 | 1003.5 |
| 20260509230112 | 84 | 38 | 1.0 | 3.0 | 0.00 | 0.00 | 0.00 | 63 | 1003.5 |
| 20260509225112 | 84 | 38 | 0.0 | 4.0 | 0.00 | 0.00 | 0.00 | 65 | 1003.5 |
| 20260509224112 | 84 | 38 | 1.0 | 5.0 | 0.00 | 0.00 | 0.00 | 65 | 1003.4 |
| 20260509223112 | 84 | 39 | 3.0 | 5.0 | 0.00 | 0.00 | 0.00 | 65 | 1003.3 |
| 20260509222112 | 84 | 38 | 1.0 | 3.0 | 0.00 | 0.00 | 0.00 | 67 | 1003.3 |
| 20260509221112 | 84 | 38 | 2.0 | 5.0 | 0.00 | 0.00 | 0.00 | 67 | 1003.3 |
| 20260509220112 | 84 | 39 | 2.0 | 7.0 | 0.00 | 0.00 | 0.00 | 66 | 1003.3 |
| 20260509215112 | 85 | 38 | 1.0 | 5.0 | 0.00 | 0.00 | 0.00 | 67 | 1003.4 |
| 20260509214112 | 84 | 38 | 1.0 | 5.0 | 0.00 | 0.00 | 0.00 | 67 | 1003.4 |
| 20260509213112 | 84 | 38 | 2.0 | 5.0 | 0.00 | 0.00 | 0.00 | 67 | 1003.5 |
| 20260509212112 | 84 | 38 | 2.0 | 6.0 | 0.00 | 0.00 | 0.00 | 68 | 1003.7 |
| 20260509211112 | 84 | 38 | 2.0 | 7.0 | 0.00 | 0.00 | 0.00 | 67 | 1003.8 |
| 20260509210112 | 85 | 38 | 3.0 | 7.0 | 0.00 | 0.00 | 0.00 | 68 | 1003.9 |
| 20260509205112 | 85 | 38 | 1.0 | 5.0 | 0.00 | 0.00 | 0.00 | 66 | 1004.1 |
| 20260509204112 | 86 | 38 | 2.0 | 9.0 | 0.00 | 0.00 | 0.00 | 66 | 1004.2 |
| 20260509203112 | 87 | 40 | 2.0 | 6.0 | 0.00 | 0.00 | 0.00 | 64 | 1004.2 |
| 20260509202112 | 87 | 40 | 0.0 | 4.0 | 0.00 | 0.00 | 0.00 | 62 | 1004.2 |
| 20260509201112 | 87 | 40 | 1.0 | 5.0 | 0.00 | 0.00 | 0.00 | 61 | 1004.3 |
| 20260509200112 | 88 | 40 | 1.0 | 6.0 | 0.00 | 0.00 | 0.00 | 60 | 1004.5 |
| 20260509195112 | 89 | 40 | 0.0 | 1.0 | 0.00 | 0.00 | 0.00 | 59 | 1004.6 |
| 20260509194112 | 89 | 40 | 0.0 | 1.0 | 0.00 | 0.00 | 0.00 | 58 | 1004.6 |
| 20260509193112 | 88 | 40 | 0.0 | 3.0 | 0.00 | 0.00 | 0.00 | 59 | 1004.7 |
| 20260509192112 | 89 | 40 | 0.0 | 0.0 | 0.00 | 0.00 | 0.00 | 59 | 1004.8 |
| 20260509191112 | 88 | 40 | 0.0 | 1.0 | 0.00 | 0.00 | 0.00 | 62 | 1004.9 |
| 20260509190112 | 88 | 40 | 0.0 | 0.0 | 0.00 | 0.00 | 0.00 | 64 | 1005.0 |
| 20260509185112 | 87 | 40 | 0.0 | 2.0 | 0.00 | 0.00 | 0.00 | 63 | 1005.0 |
| 20260509184112 | 87 | 40 | 0.0 | 1.0 | 0.00 | 0.00 | 0.00 | 67 | 1005.2 |
| 20260509183112 | 88 | 40 | 0.0 | 1.0 | 0.00 | 0.00 | 0.00 | 63 | 1005.3 |
| 20260509182112 | 87 | 40 | 0.0 | 1.0 | 0.00 | 0.00 | 0.00 | 65 | 1005.3 |
| 20260509181112 | 86 | 40 | 0.0 | 3.0 | 0.00 | 0.00 | 0.00 | 67 | 1005.5 |
| 20260509180112 | 87 | 40 | 0.0 | 1.0 | 0.00 | 0.00 | 0.00 | 67 | 1005.6 |
| 20260509175112 | 86 | 40 | 0.0 | 1.0 | 0.00 | 0.00 | 0.00 | 67 | 1005.8 |
| 20260509174112 | 86 | 40 | 0.0 | 0.0 | 0.00 | 0.00 | 0.00 | 67 | 1005.9 |
| 20260509173112 | 85 | 40 | 0.0 | 0.0 | 0.00 | 0.00 | 0.00 | 69 | 1006.0 |
| 20260509172112 | 84 | 40 | 0.0 | 1.0 | 0.00 | 0.00 | 0.00 | 71 | 1006.1 |
| 20260509171112 | 84 | 40 | 0.0 | 1.0 | 0.00 | 0.00 | 0.00 | 70 | 1006.2 |
| 20260509170112 | 83 | 40 | 0.0 | 1.0 | 0.00 | 0.00 | 0.00 | 72 | 1006.2 |
| 20260509165112 | 84 | 40 | 0.0 | 0.0 | 0.00 | 0.00 | 0.00 | 69 | 1006.2 |
| 20260509164112 | 84 | 40 | 0.0 | 0.0 | 0.00 | 0.00 | 0.00 | 71 | 1006.2 |
| 20260509163112 | 82 | 40 | 0.0 | 0.0 | 0.00 | 0.00 | 0.00 | 73 | 1006.3 |
| 20260509162112 | 81 | 40 | 0.0 | 0.0 | 0.00 | 0.00 | 0.00 | 77 | 1006.2 |
| 20260509161111 | 79 | 307 | 0.0 | 0.0 | 0.00 | 0.00 | 0.00 | 80 | 1006.3 |
| 20260509160111 | 78 | 308 | 0.0 | 2.0 | 0.00 | 0.00 | 0.00 | 81 | 1006.3 |
| 20260509155111 | 76 | 308 | 1.0 | 2.0 | 0.00 | 0.00 | 0.00 | 83 | 1006.3 |
| 20260509154111 | 75 | 307 | 1.0 | 1.0 | 0.00 | 0.00 | 0.00 | 84 | 1006.3 |
| 20260509153111 | 74 | 307 | 0.0 | 1.0 | 0.00 | 0.00 | 0.00 | 85 | 1006.4 |
| 20260509152111 | 74 | 307 | 0.0 | 1.0 | 0.00 | 0.00 | 0.00 | 86 | 1006.3 |
| 20260509151111 | 73 | 307 | 0.0 | 2.0 | 0.00 | 0.00 | 0.00 | 88 | 1006.4 |
| 20260509150111 | 72 | 307 | 0.0 | 1.0 | 0.00 | 0.00 | 0.00 | 89 | 1006.3 |
| 20260509145111 | 72 | 308 | 1.0 | 2.0 | 0.00 | 0.00 | 0.00 | 89 | 1006.4 |
| 20260509144111 | 72 | 308 | 1.0 | 1.0 | 0.00 | 0.00 | 0.00 | 89 | 1006.4 |
| 20260509143111 | 72 | 307 | 0.0 | 3.0 | 0.00 | 0.00 | 0.00 | 89 | 1006.3 |
| 20260509142111 | 72 | 307 | 1.0 | 3.0 | 0.00 | 0.00 | 0.00 | 88 | 1006.1 |
| 20260509141111 | 72 | 307 | 0.0 | 2.0 | 0.00 | 0.00 | 0.00 | 89 | 1006.1 |
| 20260509140111 | 72 | 307 | 0.0 | 3.0 | 0.00 | 0.00 | 0.00 | 91 | 1006.0 |
| 20260509135111 | 71 | 308 | 1.0 | 2.0 | 0.00 | 0.00 | 0.00 | 91 | 1006.0 |
| 20260509134111 | 71 | 308 | 0.0 | 1.0 | 0.00 | 0.00 | 0.00 | 92 | 1005.9 |
| 20260509133111 | 71 | 307 | 0.0 | 1.0 | 0.00 | 0.00 | 0.00 | 93 | 1005.8 |
| 20260509132111 | 70 | 307 | 0.0 | 1.0 | 0.00 | 0.00 | 0.00 | 93 | 1005.7 |
| 20260509131111 | 71 | 307 | 2.0 | 2.0 | 0.00 | 0.00 | 0.00 | 93 | 1005.8 |
| 20260509130111 | 71 | 307 | 0.0 | 1.0 | 0.00 | 0.00 | 0.00 | 93 | 1005.8 |
| 20260509125111 | 71 | 308 | 0.0 | 1.0 | 0.00 | 0.00 | 0.00 | 94 | 1005.6 |
| 20260509124111 | 70 | 307 | 0.0 | 1.0 | 0.00 | 0.00 | 0.00 | 95 | 1005.6 |
| 20260509123111 | 69 | 307 | 0.0 | 0.0 | 0.00 | 0.00 | 0.00 | 96 | 1005.7 |
| 20260509122111 | 68 | 308 | 0.0 | 0.0 | 0.00 | 0.00 | 0.00 | 96 | 1005.6 |
| 20260509121111 | 68 | 308 | 0.0 | 0.0 | 0.00 | 0.00 | 0.00 | 93 | 1005.6 |
| 20260509120111 | 68 | 308 | 0.0 | 0.0 | 0.00 | 0.00 | 0.00 | 93 | 1005.5 |
| 20260509115111 | 68 | 308 | 0.0 | 0.0 | 0.00 | 0.00 | 0.00 | 93 | 1005.4 |
| 20260509114111 | 68 | 308 | 0.0 | 0.0 | 0.00 | 0.00 | 0.00 | 93 | 1005.1 |
| 20260509113111 | 68 | 308 | 0.0 | 0.0 | 0.00 | 0.00 | 0.00 | 93 | 1005.0 |
| 20260509112111 | 68 | 308 | 0.0 | 0.0 | 0.00 | 0.00 | 0.00 | 93 | 1004.7 |
| 20260509111111 | 68 | 308 | 0.0 | 0.0 | 0.00 | 0.00 | 0.00 | 93 | 1004.6 |
| 20260509110111 | 68 | 308 | 0.0 | 0.0 | 0.00 | 0.00 | 0.00 | 93 | 1004.4 |
| 20260509105111 | 68 | 308 | 0.0 | 0.0 | 0.00 | 0.00 | 0.00 | 93 | 1004.3 |
| 20260509104111 | 68 | 308 | 0.0 | 0.0 | 0.00 | 0.00 | 0.00 | 93 | 1004.3 |
| 20260509103111 | 68 | 308 | 0.0 | 0.0 | 0.00 | 0.00 | 0.00 | 93 | 1004.2 |
| 20260509102111 | 68 | 308 | 0.0 | 0.0 | 0.00 | 0.00 | 0.00 | 93 | 1004.2 |
| 20260509101111 | 68 | 308 | 0.0 | 0.0 | 0.00 | 0.00 | 0.00 | 93 | 1004.1 |
| 20260509100111 | 68 | 308 | 0.0 | 0.0 | 0.00 | 0.00 | 0.00 | 93 | 1004.2 |
| 20260509095111 | 68 | 308 | 0.0 | 0.0 | 0.00 | 0.00 | 0.00 | 93 | 1004.0 |
| 20260509094111 | 68 | 308 | 0.0 | 0.0 | 0.00 | 0.00 | 0.00 | 93 | 1004.0 |
| 20260509093111 | 68 | 308 | 0.0 | 0.0 | 0.00 | 0.00 | 0.00 | 93 | 1004.2 |
| 20260509092111 | 69 | 307 | 0.0 | 0.0 | 0.00 | 0.00 | 0.00 | 94 | 1004.1 |
| 20260509091111 | 69 | 308 | 0.0 | 2.0 | 0.00 | 0.00 | 0.00 | 94 | 1003.9 |
| 20260509090111 | 70 | 307 | 2.0 | 5.0 | 0.00 | 0.00 | 0.00 | 93 | 1002.9 |
| 20260509085111 | 70 | 307 | 2.0 | 6.0 | 0.00 | 0.00 | 0.00 | 93 | 1002.7 |
| 20260509084111 | 70 | 307 | 2.0 | 6.0 | 0.00 | 0.00 | 0.00 | 93 | 1002.9 |
| 20260509083111 | 70 | 308 | 1.0 | 7.0 | 0.00 | 0.00 | 0.00 | 93 | 1003.0 |
| 20260509082111 | 70 | 308 | 2.0 | 5.0 | 0.00 | 0.00 | 0.00 | 93 | 1003.4 |
| 20260509081111 | 70 | 307 | 3.0 | 4.0 | 0.00 | 0.00 | 0.00 | 93 | 1003.6 |
| 20260509080111 | 70 | 308 | 1.0 | 2.0 | 0.00 | 0.00 | 0.00 | 92 | 1004.3 |
| 20260509075111 | 70 | 307 | 0.0 | 3.0 | 0.00 | 0.00 | 0.00 | 92 | 1004.6 |
| 20260509074111 | 70 | 308 | 1.0 | 2.0 | 0.00 | 0.00 | 0.00 | 92 | 1005.0 |
| 20260509073110 | 70 | 307 | 0.0 | 1.0 | 0.00 | 0.00 | 0.00 | 92 | 1005.3 |
| 20260509072110 | 70 | 307 | 0.0 | 1.0 | 0.00 | 0.00 | 0.00 | 91 | 1005.5 |
| 20260509071110 | 70 | 307 | 0.0 | 2.0 | 0.00 | 0.00 | 0.00 | 91 | 1005.6 |
| 20260509070110 | 70 | 308 | 0.0 | 1.0 | 0.00 | 0.00 | 0.00 | 92 | 1005.7 |
| 20260509065110 | 70 | 308 | 0.0 | 1.0 | 0.00 | 0.00 | 0.00 | 91 | 1005.8 |
| 20260509064110 | 70 | 307 | 0.0 | 1.0 | 0.00 | 0.00 | 0.00 | 91 | 1005.8 |
| 20260509063110 | 70 | 308 | 0.0 | 1.0 | 0.00 | 0.00 | 0.00 | 90 | 1005.3 |
| 20260509062110 | 70 | 308 | 0.0 | 1.0 | 0.00 | 0.00 | 0.00 | 90 | 1005.3 |
| 20260509061110 | 70 | 308 | 0.0 | 1.0 | 0.00 | 0.00 | 0.00 | 90 | 1005.5 |